Tracking 20712 objects as of 28-May-2020
HD Live streaming from Space Station
objects crossing your sky now

NOAA 16 DEB

Track NOAA 16 DEB now!
10-day predictions


NORAD ID: 41211
Int'l Code: 2000-055DQ
Perigee: 850.9 km
Apogee: 888.9 km
Inclination: 98.8 °
Period: 102.2 minutes
Semi major axis: 7240 km
RCS: Unknown
Launch date: September 21, 2000
Source: United States (US)
Launch site: AIR FORCE WESTERN TEST RANGE (AFWTR)

Note: This is SATELLITE DEBRIS
aabbcc
Your satellite tracking list
Your tracking list is empty




NASA's NSSDC Master Catalog

Two Line Element Set (TLE):
1 41211U 00055DQ  20144.63117558  .00000500  00000-0  31292-3 0  9991
2 41211  98.8265 210.8889 0026236 296.6667  63.1817 14.09013849229341
Source of the keplerian elements: AFSPC